Location: Mesa Vista Observatory
(35.5777°N, 105.6987°W)
Time: 07:24:02
(UTC-06:00)

Tiros 1 despin weight - Visible Passes

Search period start: 26 September 2020 00:00
Search period end: 06 October 2020 00:00
Orbit: 593 x 642 km, 48.2° (Epoch: 26 September)

Date Brightness Start Highest point End Pass type
(mag) Time Alt. Az. Time Alt. Az. Time Alt. Az.
26 Sep ? 20:36:55 10° WNW 20:41:02 31° SW 20:42:58 23° S visible
27 Sep ? 19:11:28 10° NW 19:16:07 87° NE 19:20:48 10° SE visible
27 Sep ? 20:54:32 10° W 20:57:12 15° SW 20:59:20 12° SSW visible
28 Sep ? 19:28:02 10° WNW 19:32:30 47° SW 19:36:59 10° SSE visible
29 Sep ? 19:45:04 10° W 19:48:44 23° SW 19:52:26 10° S visible
30 Sep ? 20:03:50 10° WSW 20:04:52 11° SW 20:05:53 10° SW visible
